URO100P EGHH-LMML

Flight info

Callsign URO100P
Flight time 3h 36m
Altitude 23000
Route SAM Y8 GWC DCT BENBO UL612 OGULO DCT OKASI DCT OKEKO DCT MOU DCT MADIV DCT MOKIP DCT TUFTA DCT KOGAS DCT MEDAM DCT NITAM DCT MOGBO DCT KONER DCT KISTO DCT RONAB DCT MARON L12 GZO
Aircraft A346/H-SDE2E3FGHIJ3J4J5M1RWXY/LB1D1

Departure

Time 2026-05-07 15:45
Airport Bournemouth Airport (EGHH)

Arrival

Time 2026-05-07 19:22
Airport Malta International Airport (LMML)
Time Latitude Longitude Altitude Speed Heading
2026-05-07 15:28 50.78625 -1.84105 47 ft 0 kts 179°
2026-05-07 15:41 50.78614 -1.84104 49 ft 8 kts 179°
2026-05-07 15:42 50.78533 -1.84088 49 ft 13 kts 169°
2026-05-07 15:42 50.78432 -1.84052 52 ft 16 kts 166°
2026-05-07 15:42 50.78315 -1.84004 50 ft 17 kts 165°
2026-05-07 15:42 50.78252 -1.83978 51 ft 7 kts 165°
2026-05-07 15:43 50.78127 -1.83926 52 ft 15 kts 165°
2026-05-07 15:43 50.78083 -1.83802 52 ft 17 kts 76°
2026-05-07 15:43 50.78116 -1.83600 51 ft 20 kts 76°
2026-05-07 15:43 50.78153 -1.83371 55 ft 23 kts 75°
2026-05-07 15:44 50.78196 -1.83112 51 ft 26 kts 75°
2026-05-07 15:44 50.78233 -1.82879 50 ft 12 kts 84°
2026-05-07 15:44 50.78214 -1.82738 47 ft 11 kts 71°
2026-05-07 15:44 50.78257 -1.82722 49 ft 5 kts 295°
2026-05-07 15:45 50.78257 -1.82744 52 ft 0 kts 257°
2026-05-07 15:45 50.78196 -1.83116 52 ft 83 kts 255°
2026-05-07 15:45 50.77974 -1.84458 57 ft 164 kts 256°
2026-05-07 15:45 50.77678 -1.86337 724 ft 184 kts 253°
2026-05-07 15:46 50.77463 -1.90707 2525 ft 218 kts 270°
2026-05-07 15:46 50.77556 -1.93155 3520 ft 225 kts 270°
2026-05-07 15:46 50.77729 -1.95736 4289 ft 242 kts 286°
2026-05-07 15:47 50.78714 -1.97999 4922 ft 265 kts 323°
2026-05-07 15:47 50.80463 -1.99009 5751 ft 276 kts 359°
2026-05-07 15:47 50.82290 -1.98282 6782 ft 272 kts 31°
2026-05-07 15:47 50.83604 -1.96200 7648 ft 270 kts 62°
2026-05-07 15:48 50.84200 -1.93718 8280 ft 275 kts 75°
2026-05-07 15:48 50.84720 -1.90765 8975 ft 281 kts 76°
2026-05-07 15:48 50.85248 -1.87740 9728 ft 285 kts 76°
2026-05-07 15:49 50.85800 -1.84696 10417 ft 289 kts 75°
2026-05-07 15:49 50.86379 -1.81620 11103 ft 292 kts 74°
2026-05-07 15:49 50.86966 -1.78581 11798 ft 294 kts 75°
2026-05-07 15:49 50.87588 -1.75382 12519 ft 296 kts 75°
2026-05-07 15:50 50.88199 -1.72248 13217 ft 299 kts 75°
2026-05-07 15:50 50.88819 -1.69073 13912 ft 301 kts 75°
2026-05-07 15:50 50.89434 -1.65918 14492 ft 304 kts 75°
2026-05-07 15:50 50.90069 -1.62650 15081 ft 308 kts 75°
2026-05-07 15:51 50.90694 -1.59436 15642 ft 311 kts 75°
2026-05-07 15:51 50.91335 -1.56140 16216 ft 314 kts 74°
2026-05-07 15:51 50.91982 -1.52804 16778 ft 318 kts 74°
2026-05-07 15:51 50.92635 -1.49436 17330 ft 321 kts 74°
2026-05-07 15:52 50.93295 -1.46021 17894 ft 324 kts 74°
2026-05-07 15:52 50.93961 -1.42572 18411 ft 328 kts 74°
2026-05-07 15:52 50.94632 -1.39087 18884 ft 331 kts 74°
2026-05-07 15:52 50.95162 -1.35522 19352 ft 332 kts 86°
2026-05-07 15:53 50.95108 -1.31869 19814 ft 332 kts 102°
2026-05-07 15:53 50.94584 -1.28298 20319 ft 332 kts 107°
2026-05-07 15:53 50.93964 -1.24755 20772 ft 335 kts 108°
2026-05-07 15:53 50.93329 -1.21174 21225 ft 338 kts 108°
2026-05-07 15:54 50.92695 -1.17555 21694 ft 340 kts 107°
2026-05-07 15:54 50.92063 -1.13891 22144 ft 344 kts 107°
2026-05-07 15:54 50.91430 -1.10192 22455 ft 350 kts 107°
2026-05-07 15:54 50.90791 -1.06446 22842 ft 354 kts 107°
2026-05-07 15:55 50.90148 -1.02664 23045 ft 355 kts 107°
2026-05-07 15:55 50.89505 -0.98888 23054 ft 355 kts 107°
2026-05-07 15:55 50.88860 -0.95111 23059 ft 355 kts 107°
2026-05-07 15:55 50.88212 -0.91326 23059 ft 355 kts 107°
2026-05-07 15:56 50.87559 -0.87525 23057 ft 356 kts 107°
2026-05-07 15:56 50.86908 -0.83736 23054 ft 356 kts 107°
2026-05-07 15:56 50.86253 -0.79930 23068 ft 355 kts 108°
2026-05-07 15:56 50.85399 -0.76260 23059 ft 353 kts 118°
2026-05-07 15:57 50.84142 -0.72946 23061 ft 350 kts 129°
2026-05-07 15:57 50.82626 -0.69928 23077 ft 349 kts 132°
2026-05-07 15:57 50.81060 -0.66964 23079 ft 349 kts 133°
2026-05-07 15:57 50.79499 -0.64020 23079 ft 349 kts 132°
2026-05-07 15:58 50.77943 -0.61073 23082 ft 349 kts 132°
2026-05-07 15:58 50.76370 -0.58083 23083 ft 349 kts 132°
2026-05-07 15:58 50.74818 -0.55128 23064 ft 349 kts 132°
2026-05-07 15:58 50.73267 -0.52169 23064 ft 349 kts 132°
2026-05-07 15:59 50.71707 -0.49195 23068 ft 349 kts 132°
2026-05-07 15:59 50.70156 -0.46241 23071 ft 349 kts 132°
2026-05-07 15:59 50.68605 -0.43288 23071 ft 349 kts 132°
2026-05-07 15:59 50.67046 -0.40322 23072 ft 349 kts 132°
2026-05-07 16:00 50.65492 -0.37368 23081 ft 349 kts 132°
2026-05-07 16:00 50.63940 -0.34421 23078 ft 349 kts 132°
2026-05-07 16:00 50.62390 -0.31483 23069 ft 348 kts 132°
2026-05-07 16:00 50.60839 -0.28546 23069 ft 348 kts 132°
2026-05-07 16:01 50.59288 -0.25613 23069 ft 348 kts 132°
2026-05-07 16:01 50.57738 -0.22684 23067 ft 348 kts 132°
2026-05-07 16:01 50.56187 -0.19757 23068 ft 348 kts 132°
2026-05-07 16:01 50.54635 -0.16832 23048 ft 348 kts 132°
2026-05-07 16:02 50.53082 -0.13907 23067 ft 348 kts 132°
2026-05-07 16:02 50.51528 -0.10984 23067 ft 348 kts 133°
2026-05-07 16:02 50.49972 -0.08061 23064 ft 348 kts 133°
2026-05-07 16:02 50.48419 -0.05148 23065 ft 348 kts 133°
2026-05-07 16:03 50.46858 -0.02224 23053 ft 348 kts 133°
2026-05-07 16:03 50.45193 0.00506 23063 ft 346 kts 140°
2026-05-07 16:03 50.43328 0.02895 23064 ft 345 kts 147°
2026-05-07 16:03 50.41343 0.05004 23058 ft 344 kts 149°
2026-05-07 16:04 50.39341 0.07055 23063 ft 344 kts 149°
2026-05-07 16:04 50.37337 0.09104 23065 ft 344 kts 149°
2026-05-07 16:04 50.35334 0.11161 23065 ft 344 kts 149°
2026-05-07 16:04 50.33337 0.13217 23066 ft 344 kts 149°
2026-05-07 16:05 50.31338 0.15276 23060 ft 344 kts 149°
2026-05-07 16:05 50.29332 0.17341 23060 ft 344 kts 149°
2026-05-07 16:05 50.27321 0.19410 23063 ft 344 kts 149°
2026-05-07 16:05 50.25322 0.21464 23063 ft 344 kts 149°
2026-05-07 16:06 50.23325 0.23513 23064 ft 344 kts 149°
2026-05-07 16:06 50.21316 0.25574 23063 ft 344 kts 149°
2026-05-07 16:06 50.19316 0.27626 23057 ft 344 kts 149°
2026-05-07 16:06 50.17320 0.29680 23060 ft 343 kts 149°
2026-05-07 16:07 50.15327 0.31731 23062 ft 343 kts 149°
2026-05-07 16:07 50.13336 0.33778 23060 ft 343 kts 149°
2026-05-07 16:07 50.11344 0.35822 23060 ft 343 kts 149°
2026-05-07 16:07 50.09341 0.37876 23060 ft 343 kts 149°
2026-05-07 16:08 50.07349 0.39917 23060 ft 343 kts 149°
2026-05-07 16:08 50.05356 0.41956 23061 ft 343 kts 149°
2026-05-07 16:08 50.03362 0.43994 23061 ft 343 kts 149°
2026-05-07 16:08 50.01366 0.46033 23056 ft 343 kts 149°
2026-05-07 16:09 49.99377 0.48061 23059 ft 344 kts 149°
2026-05-07 16:09 49.97374 0.50103 23059 ft 344 kts 149°
2026-05-07 16:09 49.95370 0.52144 23044 ft 344 kts 149°
2026-05-07 16:09 49.93359 0.54189 23050 ft 344 kts 149°
2026-05-07 16:10 49.92031 0.55538 23050 ft 344 kts 149°
2026-05-07 16:10 49.90011 0.57588 23053 ft 344 kts 149°
2026-05-07 16:10 49.87357 0.60280 23053 ft 344 kts 149°
2026-05-07 16:10 49.85389 0.62395 23052 ft 345 kts 146°
2026-05-07 16:11 49.84107 0.63947 23051 ft 345 kts 144°
2026-05-07 16:11 49.82241 0.66295 23050 ft 346 kts 143°
2026-05-07 16:11 49.80377 0.68647 23054 ft 346 kts 143°
2026-05-07 16:11 49.78511 0.71001 23052 ft 345 kts 143°
2026-05-07 16:12 49.76649 0.73346 23044 ft 345 kts 143°
2026-05-07 16:12 49.74754 0.75729 23043 ft 345 kts 143°
2026-05-07 16:12 49.72888 0.78071 23042 ft 345 kts 143°
2026-05-07 16:12 49.71016 0.80419 23044 ft 345 kts 143°
2026-05-07 16:13 49.69148 0.82759 23041 ft 345 kts 143°
2026-05-07 16:13 49.67282 0.85093 23043 ft 345 kts 143°
2026-05-07 16:13 49.65413 0.87429 23039 ft 345 kts 143°
2026-05-07 16:13 49.63569 0.89732 23042 ft 345 kts 143°
2026-05-07 16:14 49.61696 0.92066 23043 ft 346 kts 143°
2026-05-07 16:14 49.59823 0.94400 23042 ft 346 kts 143°
2026-05-07 16:14 49.57923 0.96766 23048 ft 346 kts 143°
2026-05-07 16:14 49.56046 0.99100 23047 ft 346 kts 143°
2026-05-07 16:15 49.54176 1.01424 23048 ft 346 kts 143°
2026-05-07 16:15 49.52295 1.03758 23052 ft 346 kts 144°
2026-05-07 16:15 49.50395 1.06114 23048 ft 346 kts 144°
2026-05-07 16:15 49.48519 1.08438 23050 ft 346 kts 144°
2026-05-07 16:16 49.46641 1.10760 23048 ft 346 kts 144°
2026-05-07 16:16 49.44765 1.13079 23061 ft 346 kts 144°
2026-05-07 16:16 49.42842 1.15452 23060 ft 346 kts 144°
2026-05-07 16:16 49.40968 1.17762 23051 ft 346 kts 144°
2026-05-07 16:17 49.39092 1.20075 23048 ft 346 kts 144°
2026-05-07 16:17 49.37216 1.22384 23059 ft 346 kts 144°
2026-05-07 16:17 49.35293 1.24749 23060 ft 346 kts 144°
2026-05-07 16:17 49.33405 1.27068 23059 ft 346 kts 144°
2026-05-07 16:18 49.31516 1.29387 23047 ft 346 kts 144°
2026-05-07 16:18 49.29652 1.31672 23042 ft 346 kts 144°
2026-05-07 16:18 49.27772 1.33976 23042 ft 346 kts 144°
2026-05-07 16:18 49.25851 1.36324 23048 ft 347 kts 144°
2026-05-07 16:19 49.23937 1.38664 23053 ft 347 kts 144°
2026-05-07 16:19 49.22045 1.40975 23050 ft 347 kts 144°
2026-05-07 16:19 49.20156 1.43279 23036 ft 347 kts 144°
2026-05-07 16:19 49.18265 1.45584 23044 ft 347 kts 144°
2026-05-07 16:20 49.16377 1.47883 23041 ft 347 kts 144°
2026-05-07 16:20 49.14483 1.50187 23039 ft 347 kts 144°
2026-05-07 16:20 49.12588 1.52489 23041 ft 347 kts 144°
2026-05-07 16:20 49.10699 1.54783 23042 ft 347 kts 144°
2026-05-07 16:21 49.08804 1.57080 23042 ft 347 kts 144°
2026-05-07 16:21 49.06880 1.59411 23037 ft 347 kts 144°
2026-05-07 16:21 49.04986 1.61706 23035 ft 348 kts 144°
2026-05-07 16:21 49.03091 1.63998 23037 ft 347 kts 144°
2026-05-07 16:22 49.01195 1.66286 23036 ft 347 kts 144°
2026-05-07 16:22 48.99305 1.68566 23038 ft 347 kts 144°
2026-05-07 16:22 48.97407 1.70852 23039 ft 347 kts 144°
2026-05-07 16:22 48.95501 1.73147 23039 ft 347 kts 144°
2026-05-07 16:23 48.93605 1.75428 23034 ft 347 kts 144°
2026-05-07 16:23 48.91707 1.77706 23035 ft 348 kts 144°
2026-05-07 16:23 48.89777 1.80021 23037 ft 348 kts 144°
2026-05-07 16:23 48.87877 1.82301 23035 ft 348 kts 144°
2026-05-07 16:24 48.85973 1.84583 23036 ft 348 kts 144°
2026-05-07 16:24 48.84071 1.86861 23036 ft 348 kts 144°
2026-05-07 16:24 48.82171 1.89132 23028 ft 348 kts 144°
2026-05-07 16:24 48.80266 1.91408 23028 ft 348 kts 144°
2026-05-07 16:25 48.78364 1.93678 23028 ft 348 kts 144°
2026-05-07 16:25 48.76454 1.95956 23028 ft 348 kts 144°
2026-05-07 16:25 48.74550 1.98224 23028 ft 348 kts 144°
2026-05-07 16:25 48.72651 2.00483 23027 ft 348 kts 144°
2026-05-07 16:26 48.70746 2.02748 23028 ft 348 kts 144°
2026-05-07 16:26 48.68836 2.05016 23027 ft 348 kts 144°
2026-05-07 16:26 48.66935 2.07272 23028 ft 348 kts 144°
2026-05-07 16:26 48.65023 2.09537 23028 ft 348 kts 144°
2026-05-07 16:27 48.63110 2.11803 23021 ft 348 kts 144°
2026-05-07 16:27 48.61194 2.14069 23025 ft 348 kts 144°
2026-05-07 16:27 48.59286 2.16324 23027 ft 348 kts 145°
2026-05-07 16:27 48.57393 2.18616 23028 ft 349 kts 142°
2026-05-07 16:28 48.55592 2.21098 23044 ft 351 kts 138°
2026-05-07 16:28 48.53868 2.23704 23044 ft 351 kts 137°
2026-05-07 16:28 48.52143 2.26333 23046 ft 351 kts 137°
2026-05-07 16:28 48.50427 2.28946 23036 ft 351 kts 137°
2026-05-07 16:29 48.48703 2.31567 23036 ft 351 kts 137°
2026-05-07 16:29 48.46987 2.34171 23036 ft 351 kts 137°
2026-05-07 16:29 48.45265 2.36779 23034 ft 351 kts 137°
2026-05-07 16:29 48.43541 2.39387 23035 ft 351 kts 137°
2026-05-07 16:30 48.41812 2.42000 23035 ft 351 kts 138°
2026-05-07 16:30 48.40081 2.44602 23034 ft 351 kts 138°
2026-05-07 16:30 48.38353 2.47201 23036 ft 351 kts 138°
2026-05-07 16:30 48.36627 2.49801 23038 ft 351 kts 138°
2026-05-07 16:31 48.34902 2.52397 23036 ft 351 kts 138°
2026-05-07 16:31 48.33175 2.54993 23036 ft 351 kts 138°
2026-05-07 16:31 48.31449 2.57585 23032 ft 351 kts 138°
2026-05-07 16:31 48.29712 2.60171 23032 ft 351 kts 140°
2026-05-07 16:32 48.27818 2.62467 23031 ft 349 kts 148°
2026-05-07 16:32 48.25728 2.64292 23032 ft 347 kts 156°
2026-05-07 16:32 48.23541 2.65827 23034 ft 346 kts 158°
2026-05-07 16:32 48.21360 2.67368 23034 ft 347 kts 155°
2026-05-07 16:33 48.19162 2.69102 23024 ft 347 kts 154°
2026-05-07 16:33 48.17011 2.70822 23030 ft 347 kts 154°
2026-05-07 16:33 48.14878 2.72533 23032 ft 347 kts 154°
2026-05-07 16:33 48.12867 2.74148 23033 ft 347 kts 154°
2026-05-07 16:34 48.10736 2.75860 23033 ft 347 kts 154°
2026-05-07 16:34 48.08601 2.77539 23025 ft 346 kts 156°
2026-05-07 16:34 48.06410 2.79028 23027 ft 345 kts 159°
2026-05-07 16:34 48.04186 2.80450 23028 ft 345 kts 160°
2026-05-07 16:35 48.02116 2.81766 23028 ft 345 kts 160°
2026-05-07 16:35 47.99908 2.83168 23028 ft 345 kts 160°
2026-05-07 16:35 47.97684 2.84580 23020 ft 345 kts 160°
2026-05-07 16:35 47.95469 2.85987 23016 ft 346 kts 160°
2026-05-07 16:36 47.93284 2.87373 23018 ft 346 kts 160°
2026-05-07 16:36 47.91072 2.88775 23020 ft 346 kts 160°
2026-05-07 16:36 47.88846 2.90185 23023 ft 346 kts 160°
2026-05-07 16:36 47.86622 2.91592 23024 ft 346 kts 160°
2026-05-07 16:37 47.84400 2.92997 23019 ft 346 kts 160°
2026-05-07 16:37 47.82186 2.94395 23018 ft 346 kts 160°
2026-05-07 16:37 47.79945 2.95810 23017 ft 347 kts 160°
2026-05-07 16:37 47.77713 2.97217 23018 ft 347 kts 160°
2026-05-07 16:38 47.75518 2.98600 23003 ft 348 kts 160°
2026-05-07 16:38 47.73262 3.00022 23012 ft 348 kts 160°
2026-05-07 16:38 47.71034 3.01421 23012 ft 348 kts 160°
2026-05-07 16:38 47.68806 3.02820 23014 ft 348 kts 160°
2026-05-07 16:39 47.66575 3.04219 23014 ft 348 kts 160°
2026-05-07 16:39 47.64347 3.05615 23015 ft 348 kts 160°
2026-05-07 16:39 47.62120 3.07009 23015 ft 348 kts 160°
2026-05-07 16:39 47.59777 3.08475 23015 ft 347 kts 160°
2026-05-07 16:40 47.57564 3.09858 23011 ft 348 kts 160°
2026-05-07 16:40 47.55337 3.11248 23014 ft 348 kts 160°
2026-05-07 16:40 47.53107 3.12642 23012 ft 348 kts 160°
2026-05-07 16:40 47.50848 3.14052 23007 ft 348 kts 160°
2026-05-07 16:41 47.48611 3.15446 23011 ft 348 kts 160°
2026-05-07 16:41 47.46372 3.16839 23008 ft 348 kts 160°
2026-05-07 16:41 47.44124 3.18237 23008 ft 348 kts 160°
2026-05-07 16:41 47.41896 3.19621 23006 ft 348 kts 160°
2026-05-07 16:42 47.39661 3.21008 23006 ft 348 kts 160°
2026-05-07 16:42 47.37439 3.22385 23003 ft 348 kts 160°
2026-05-07 16:42 47.35207 3.23767 23006 ft 348 kts 160°
2026-05-07 16:42 47.32975 3.25148 22996 ft 348 kts 160°
2026-05-07 16:43 47.30740 3.26530 23003 ft 348 kts 160°
2026-05-07 16:43 47.28510 3.27906 23005 ft 348 kts 160°
2026-05-07 16:43 47.26310 3.29264 23005 ft 347 kts 160°
2026-05-07 16:43 47.24059 3.30651 23003 ft 348 kts 160°
2026-05-07 16:44 47.21854 3.32009 23003 ft 348 kts 161°
2026-05-07 16:44 47.19585 3.33405 23004 ft 348 kts 161°
2026-05-07 16:44 47.17326 3.34793 23003 ft 348 kts 161°
2026-05-07 16:44 47.15030 3.36203 23001 ft 348 kts 161°
2026-05-07 16:45 47.12778 3.37584 22991 ft 348 kts 161°
2026-05-07 16:45 47.10533 3.38960 22996 ft 348 kts 161°
2026-05-07 16:45 47.08275 3.40342 23000 ft 348 kts 161°
2026-05-07 16:45 47.06012 3.41727 23000 ft 348 kts 161°
2026-05-07 16:46 47.03813 3.43072 23000 ft 348 kts 161°
2026-05-07 16:46 47.01543 3.44458 22999 ft 348 kts 161°
2026-05-07 16:46 47.00029 3.45381 22998 ft 348 kts 161°
2026-05-07 16:46 46.98694 3.46196 22995 ft 348 kts 161°
2026-05-07 16:47 46.96441 3.47568 22998 ft 348 kts 161°
2026-05-07 16:47 46.94196 3.48935 22998 ft 348 kts 161°
2026-05-07 16:47 46.91959 3.50295 22989 ft 348 kts 161°
2026-05-07 16:47 46.89726 3.51645 22989 ft 346 kts 160°
2026-05-07 16:48 46.87499 3.52998 22998 ft 346 kts 160°
2026-05-07 16:48 46.85279 3.54347 22997 ft 345 kts 160°
2026-05-07 16:48 46.83063 3.55692 22997 ft 345 kts 160°
2026-05-07 16:48 46.80844 3.57035 22997 ft 345 kts 160°
2026-05-07 16:49 46.78623 3.58379 22995 ft 345 kts 160°
2026-05-07 16:49 46.76401 3.59721 22997 ft 345 kts 160°
2026-05-07 16:49 46.74181 3.61062 22989 ft 345 kts 160°
2026-05-07 16:49 46.72044 3.62674 22965 ft 350 kts 144°
2026-05-07 16:50 46.70443 3.65357 22984 ft 356 kts 120°
2026-05-07 16:50 46.69609 3.68771 23014 ft 359 kts 105°
2026-05-07 16:50 46.69040 3.72324 22997 ft 359 kts 104°
2026-05-07 16:50 46.68485 3.75877 22994 ft 359 kts 104°
2026-05-07 16:51 46.67913 3.79428 22997 ft 359 kts 104°
2026-05-07 16:51 46.67324 3.82975 22996 ft 359 kts 105°
2026-05-07 16:51 46.66727 3.86502 22989 ft 359 kts 105°
2026-05-07 16:51 46.66131 3.89994 22991 ft 359 kts 105°
2026-05-07 16:52 46.65526 3.93530 23008 ft 359 kts 105°
2026-05-07 16:52 46.64949 3.96883 23012 ft 359 kts 105°
2026-05-07 16:52 46.64626 3.98758 22993 ft 359 kts 105°
2026-05-07 16:52 46.64006 4.02340 22992 ft 359 kts 105°
2026-05-07 16:53 46.63394 4.05860 22987 ft 360 kts 105°
2026-05-07 16:53 46.62752 4.09549 23003 ft 362 kts 105°
2026-05-07 16:53 46.62124 4.13158 23005 ft 362 kts 105°
2026-05-07 16:53 46.61474 4.16886 22992 ft 362 kts 105°
2026-05-07 16:54 46.60845 4.20486 22995 ft 362 kts 105°
2026-05-07 16:54 46.60212 4.24092 23010 ft 362 kts 105°
2026-05-07 16:54 46.59584 4.27674 22994 ft 362 kts 105°
2026-05-07 16:54 46.58952 4.31262 22995 ft 362 kts 105°
2026-05-07 16:55 46.58315 4.34876 22989 ft 362 kts 105°
2026-05-07 16:55 46.57901 4.37219 22997 ft 362 kts 105°
2026-05-07 16:55 46.57263 4.40824 22993 ft 362 kts 105°
2026-05-07 16:55 46.56625 4.44427 22993 ft 362 kts 105°
2026-05-07 16:56 46.55983 4.48035 23002 ft 364 kts 105°
2026-05-07 16:56 46.55349 4.51597 22995 ft 364 kts 105°
2026-05-07 16:56 46.54055 4.58846 22991 ft 364 kts 105°
2026-05-07 16:57 46.53417 4.62413 23013 ft 364 kts 105°
2026-05-07 16:57 46.52778 4.65979 22998 ft 364 kts 105°
2026-05-07 16:57 46.52137 4.69546 23001 ft 364 kts 105°
2026-05-07 16:57 46.51489 4.73140 23001 ft 364 kts 105°
2026-05-07 16:58 46.50838 4.76747 22997 ft 364 kts 105°
2026-05-07 16:58 46.50194 4.80307 22998 ft 364 kts 105°
2026-05-07 16:58 46.49546 4.83885 22995 ft 364 kts 105°
2026-05-07 16:58 46.48885 4.87520 23005 ft 365 kts 105°
2026-05-07 16:59 46.48232 4.91107 23007 ft 365 kts 105°
2026-05-07 16:59 46.47580 4.94687 23004 ft 365 kts 105°
2026-05-07 16:59 46.46906 4.98379 23013 ft 365 kts 105°
2026-05-07 16:59 46.46252 5.01946 22998 ft 365 kts 105°
2026-05-07 17:00 46.45599 5.05509 23004 ft 365 kts 106°
2026-05-07 17:00 46.44947 5.09066 23012 ft 364 kts 106°
2026-05-07 17:00 46.44294 5.12622 23006 ft 364 kts 106°
2026-05-07 17:00 46.43641 5.16173 23014 ft 364 kts 106°
2026-05-07 17:01 46.42985 5.19733 23011 ft 364 kts 106°
2026-05-07 17:01 46.42330 5.23276 23011 ft 364 kts 106°
2026-05-07 17:01 46.41670 5.26834 23002 ft 365 kts 106°
2026-05-07 17:01 46.41019 5.30342 23006 ft 365 kts 106°
2026-05-07 17:02 46.40348 5.33952 23008 ft 365 kts 106°
2026-05-07 17:02 46.39685 5.37519 23004 ft 365 kts 106°
2026-05-07 17:02 46.38860 5.41067 23005 ft 364 kts 116°
2026-05-07 17:02 46.37563 5.44323 23012 ft 361 kts 129°
2026-05-07 17:03 46.35956 5.47187 23013 ft 360 kts 133°
2026-05-07 17:03 46.34301 5.49945 23001 ft 360 kts 134°
2026-05-07 17:03 46.32606 5.52752 23004 ft 360 kts 133°
2026-05-07 17:03 46.30947 5.55513 23009 ft 360 kts 133°
2026-05-07 17:04 46.29305 5.58265 23009 ft 360 kts 133°
2026-05-07 17:04 46.27670 5.61016 23005 ft 361 kts 133°
2026-05-07 17:04 46.26038 5.63765 23005 ft 361 kts 133°
2026-05-07 17:04 46.24398 5.66528 23005 ft 361 kts 133°
2026-05-07 17:05 46.22762 5.69285 22998 ft 361 kts 133°
2026-05-07 17:05 46.21128 5.72037 22995 ft 361 kts 133°
2026-05-07 17:05 46.19474 5.74822 22998 ft 360 kts 133°
2026-05-07 17:05 46.17828 5.77589 22996 ft 361 kts 133°
2026-05-07 17:06 46.16191 5.80340 22997 ft 360 kts 133°
2026-05-07 17:06 46.14557 5.83082 22993 ft 360 kts 133°
2026-05-07 17:06 46.12921 5.85824 22994 ft 360 kts 133°
2026-05-07 17:06 46.11281 5.88571 23007 ft 360 kts 133°
2026-05-07 17:07 46.09630 5.91335 22986 ft 360 kts 133°
2026-05-07 17:07 46.07989 5.94077 22973 ft 360 kts 133°
2026-05-07 17:07 46.06369 5.96772 22971 ft 361 kts 133°
2026-05-07 17:07 46.04701 5.99544 22975 ft 361 kts 133°
2026-05-07 17:08 46.03070 6.02260 22975 ft 361 kts 133°
2026-05-07 17:08 46.01382 6.05070 22972 ft 361 kts 133°
2026-05-07 17:08 45.99713 6.07853 22968 ft 361 kts 133°
2026-05-07 17:08 45.98073 6.10582 22968 ft 361 kts 133°
2026-05-07 17:09 45.96426 6.13316 22970 ft 361 kts 133°
2026-05-07 17:09 45.94782 6.16043 22976 ft 361 kts 133°
2026-05-07 17:09 45.93088 6.18850 22971 ft 361 kts 133°
2026-05-07 17:09 45.91444 6.21573 22969 ft 360 kts 134°
2026-05-07 17:10 45.89798 6.24294 22967 ft 360 kts 134°
2026-05-07 17:10 45.88150 6.27016 22971 ft 360 kts 134°
2026-05-07 17:10 45.86506 6.29731 22974 ft 360 kts 134°
2026-05-07 17:10 45.84862 6.32444 22972 ft 360 kts 134°
2026-05-07 17:11 45.83212 6.35161 22964 ft 361 kts 134°
2026-05-07 17:11 45.81518 6.37822 22966 ft 361 kts 138°
2026-05-07 17:11 45.79665 6.40232 22968 ft 359 kts 144°
2026-05-07 17:11 45.77675 6.42374 22963 ft 357 kts 147°
2026-05-07 17:12 45.75648 6.44436 22971 ft 356 kts 148°
2026-05-07 17:12 45.73620 6.46481 22980 ft 356 kts 148°
2026-05-07 17:12 45.71597 6.48524 22980 ft 356 kts 148°
2026-05-07 17:12 45.69567 6.50578 22988 ft 356 kts 148°
2026-05-07 17:13 45.67516 6.52656 22977 ft 355 kts 148°
2026-05-07 17:13 45.65494 6.54706 22976 ft 355 kts 148°
2026-05-07 17:13 45.63480 6.56747 22986 ft 355 kts 148°
2026-05-07 17:13 45.61461 6.58792 22969 ft 355 kts 148°
2026-05-07 17:14 45.59418 6.60860 22970 ft 356 kts 148°
2026-05-07 17:14 45.57390 6.62912 22973 ft 355 kts 148°
2026-05-07 17:14 45.55381 6.64945 22969 ft 353 kts 148°
2026-05-07 17:14 45.53350 6.66997 22973 ft 353 kts 148°
2026-05-07 17:15 45.51334 6.69030 22980 ft 354 kts 148°
2026-05-07 17:15 45.49359 6.71021 22987 ft 354 kts 148°
2026-05-07 17:15 45.47308 6.73089 22988 ft 354 kts 148°
2026-05-07 17:15 45.45256 6.75154 22986 ft 354 kts 148°
2026-05-07 17:16 45.43243 6.77176 22988 ft 354 kts 148°
2026-05-07 17:16 45.41227 6.79201 22989 ft 354 kts 148°
2026-05-07 17:16 45.39213 6.81222 22981 ft 354 kts 148°
2026-05-07 17:16 45.37200 6.83241 22991 ft 354 kts 148°
2026-05-07 17:17 45.35187 6.85258 22991 ft 353 kts 148°
2026-05-07 17:17 45.33160 6.87287 22991 ft 353 kts 148°
2026-05-07 17:17 45.31145 6.89302 22991 ft 352 kts 148°
2026-05-07 17:17 45.29139 6.91307 22993 ft 352 kts 148°
2026-05-07 17:18 45.27131 6.93395 22990 ft 353 kts 144°
2026-05-07 17:18 45.25235 6.95668 22993 ft 355 kts 140°
2026-05-07 17:18 45.23448 6.98090 22990 ft 355 kts 139°
2026-05-07 17:18 45.21640 7.00593 22999 ft 355 kts 139°
2026-05-07 17:19 45.19984 7.02888 22992 ft 355 kts 139°
2026-05-07 17:19 45.18217 7.05328 22996 ft 355 kts 139°
2026-05-07 17:19 45.16439 7.07777 22984 ft 355 kts 139°
2026-05-07 17:19 45.14669 7.10209 22997 ft 354 kts 139°
2026-05-07 17:20 45.12902 7.12634 23000 ft 353 kts 139°
2026-05-07 17:20 45.11160 7.15171 22999 ft 354 kts 135°
2026-05-07 17:20 45.09579 7.17864 23015 ft 356 kts 130°
2026-05-07 17:20 45.08129 7.20712 23017 ft 357 kts 128°
2026-05-07 17:21 45.06706 7.23598 22993 ft 357 kts 127°
2026-05-07 17:21 45.05290 7.26475 22997 ft 357 kts 128°
2026-05-07 17:21 45.03863 7.29362 22997 ft 357 kts 128°
2026-05-07 17:21 45.02424 7.32260 22995 ft 357 kts 128°
2026-05-07 17:22 45.00994 7.35129 23014 ft 357 kts 128°
2026-05-07 17:22 44.99576 7.37973 22975 ft 356 kts 128°
2026-05-07 17:22 44.98083 7.40764 22977 ft 355 kts 132°
2026-05-07 17:22 44.96423 7.43437 22976 ft 354 kts 136°
2026-05-07 17:23 44.94692 7.46027 22966 ft 354 kts 136°
2026-05-07 17:23 44.92975 7.48574 22971 ft 354 kts 136°
2026-05-07 17:23 44.91246 7.51137 22984 ft 354 kts 136°
2026-05-07 17:23 44.89548 7.53654 22984 ft 354 kts 136°
2026-05-07 17:24 44.87850 7.56172 22986 ft 354 kts 136°
2026-05-07 17:24 44.86154 7.58686 22986 ft 354 kts 136°
2026-05-07 17:24 44.84439 7.61228 22989 ft 354 kts 136°
2026-05-07 17:24 44.82725 7.63767 22979 ft 355 kts 136°
2026-05-07 17:25 44.80997 7.66325 22968 ft 356 kts 136°
2026-05-07 17:25 44.79290 7.68848 22964 ft 356 kts 136°
2026-05-07 17:25 44.77604 7.71339 22963 ft 356 kts 136°
2026-05-07 17:25 44.75866 7.73905 22978 ft 356 kts 136°
2026-05-07 17:26 44.74115 7.76487 22983 ft 356 kts 136°
2026-05-07 17:26 44.72408 7.79004 22971 ft 356 kts 137°
2026-05-07 17:26 44.70699 7.81524 22969 ft 356 kts 137°
2026-05-07 17:26 44.68978 7.84055 22973 ft 356 kts 137°
2026-05-07 17:27 44.67266 7.86570 22972 ft 356 kts 137°
2026-05-07 17:27 44.65548 7.89092 22974 ft 356 kts 137°
2026-05-07 17:27 44.63862 7.91564 22975 ft 356 kts 137°
2026-05-07 17:27 44.62136 7.94092 22974 ft 356 kts 137°
2026-05-07 17:28 44.60420 7.96603 22978 ft 356 kts 137°
2026-05-07 17:28 44.58703 7.99115 22975 ft 356 kts 137°
2026-05-07 17:28 44.56991 8.01619 22972 ft 356 kts 137°
2026-05-07 17:28 44.55276 8.04122 22977 ft 356 kts 137°
2026-05-07 17:29 44.53556 8.06632 22980 ft 356 kts 137°
2026-05-07 17:29 44.51836 8.09138 22982 ft 356 kts 137°
2026-05-07 17:29 44.50089 8.11684 22980 ft 356 kts 137°
2026-05-07 17:29 44.48358 8.14203 22982 ft 356 kts 137°
2026-05-07 17:30 44.46635 8.16705 22981 ft 356 kts 137°
2026-05-07 17:30 44.44911 8.19209 22984 ft 356 kts 137°
2026-05-07 17:30 44.43188 8.21709 22988 ft 356 kts 137°
2026-05-07 17:30 44.41461 8.24213 22985 ft 356 kts 137°
2026-05-07 17:31 44.39737 8.26709 22988 ft 357 kts 137°
2026-05-07 17:31 44.38016 8.29199 22987 ft 357 kts 137°
2026-05-07 17:31 44.36289 8.31695 22988 ft 356 kts 137°
2026-05-07 17:31 44.34568 8.34180 22985 ft 356 kts 137°
2026-05-07 17:32 44.32838 8.36677 22989 ft 357 kts 137°
2026-05-07 17:32 44.31106 8.39172 22990 ft 357 kts 137°
2026-05-07 17:32 44.29377 8.41663 22984 ft 356 kts 137°
2026-05-07 17:32 44.28236 8.43307 22986 ft 357 kts 137°
2026-05-07 17:33 44.25920 8.46638 22990 ft 357 kts 137°
2026-05-07 17:33 44.24182 8.49133 22992 ft 357 kts 137°
2026-05-07 17:33 44.22451 8.51620 22990 ft 357 kts 137°
2026-05-07 17:33 44.20720 8.54102 22992 ft 357 kts 137°
2026-05-07 17:34 44.18990 8.56582 22990 ft 357 kts 137°
2026-05-07 17:34 44.17258 8.59062 22988 ft 357 kts 138°
2026-05-07 17:34 44.15524 8.61541 22990 ft 357 kts 138°
2026-05-07 17:34 44.13791 8.64018 22992 ft 357 kts 138°
2026-05-07 17:35 44.12038 8.66521 22994 ft 357 kts 138°
2026-05-07 17:35 44.10304 8.68994 22993 ft 357 kts 138°
2026-05-07 17:35 44.08559 8.71482 22979 ft 357 kts 138°
2026-05-07 17:35 44.06785 8.74010 22983 ft 359 kts 138°
2026-05-07 17:36 44.05033 8.76497 22992 ft 359 kts 138°
2026-05-07 17:36 44.03236 8.79047 22992 ft 359 kts 138°
2026-05-07 17:36 44.01485 8.81529 22991 ft 359 kts 138°
2026-05-07 17:36 43.99738 8.84005 22991 ft 359 kts 138°
2026-05-07 17:37 43.97986 8.86487 22996 ft 360 kts 138°
2026-05-07 17:37 43.96260 8.88931 22995 ft 360 kts 138°
2026-05-07 17:37 43.94507 8.91410 22996 ft 359 kts 139°
2026-05-07 17:37 43.92748 8.93897 22995 ft 359 kts 139°
2026-05-07 17:38 43.90979 8.96394 22993 ft 359 kts 139°
2026-05-07 17:38 43.89211 8.98890 22994 ft 359 kts 139°
2026-05-07 17:38 43.87458 9.01360 22995 ft 359 kts 139°
2026-05-07 17:38 43.85705 9.03830 22988 ft 359 kts 139°
2026-05-07 17:39 43.83915 9.06349 22991 ft 359 kts 139°
2026-05-07 17:39 43.82164 9.08811 22992 ft 359 kts 139°
2026-05-07 17:39 43.80406 9.11280 22991 ft 359 kts 139°
2026-05-07 17:39 43.78650 9.13743 22993 ft 360 kts 139°
2026-05-07 17:40 43.77485 9.15375 22991 ft 360 kts 139°
2026-05-07 17:40 43.75723 9.17845 22992 ft 360 kts 139°
2026-05-07 17:40 43.73967 9.20303 22992 ft 360 kts 139°
2026-05-07 17:40 43.72202 9.22771 22992 ft 360 kts 139°
2026-05-07 17:41 43.70414 9.25270 22995 ft 360 kts 139°
2026-05-07 17:41 43.68651 9.27732 22995 ft 360 kts 139°
2026-05-07 17:41 43.66889 9.30190 22995 ft 360 kts 139°
2026-05-07 17:41 43.65130 9.32642 22995 ft 360 kts 139°
2026-05-07 17:42 43.63364 9.35102 22991 ft 360 kts 139°
2026-05-07 17:42 43.61602 9.37555 22993 ft 360 kts 139°
2026-05-07 17:42 43.59838 9.40007 22992 ft 360 kts 139°
2026-05-07 17:42 43.58076 9.42454 22992 ft 360 kts 139°
2026-05-07 17:43 43.56307 9.44908 22995 ft 360 kts 139°
2026-05-07 17:43 43.54539 9.47359 22985 ft 360 kts 139°
2026-05-07 17:43 43.52756 9.49828 22991 ft 361 kts 139°
2026-05-07 17:43 43.50902 9.52183 22990 ft 358 kts 146°
2026-05-07 17:44 43.48885 9.54170 22988 ft 354 kts 153°
2026-05-07 17:44 43.46751 9.55837 22992 ft 353 kts 156°
2026-05-07 17:44 43.44588 9.57428 22992 ft 352 kts 157°
2026-05-07 17:44 43.42420 9.59008 22978 ft 352 kts 157°
2026-05-07 17:45 43.40250 9.60596 22990 ft 353 kts 157°
2026-05-07 17:45 43.38085 9.62183 22992 ft 353 kts 157°
2026-05-07 17:45 43.35874 9.63808 22992 ft 354 kts 157°
2026-05-07 17:45 43.33689 9.65416 22992 ft 353 kts 157°
2026-05-07 17:46 43.31921 9.66718 22987 ft 354 kts 157°
2026-05-07 17:46 43.29733 9.68329 22989 ft 354 kts 157°
2026-05-07 17:46 43.27568 9.69923 22987 ft 354 kts 157°
2026-05-07 17:46 43.25397 9.71520 22987 ft 354 kts 157°
2026-05-07 17:47 43.23240 9.73108 22987 ft 354 kts 157°
2026-05-07 17:47 43.21038 9.74727 22979 ft 354 kts 156°
2026-05-07 17:47 43.18854 9.76334 22984 ft 354 kts 156°
2026-05-07 17:47 43.16685 9.77927 22986 ft 354 kts 157°
2026-05-07 17:48 43.14500 9.79529 22977 ft 354 kts 157°
2026-05-07 17:48 43.12325 9.81121 22982 ft 354 kts 157°
2026-05-07 17:48 43.10150 9.82713 22983 ft 354 kts 157°
2026-05-07 17:48 43.07972 9.84305 22979 ft 355 kts 157°
2026-05-07 17:49 43.05774 9.85910 22984 ft 355 kts 157°
2026-05-07 17:49 43.03563 9.87521 22986 ft 355 kts 157°
2026-05-07 17:49 43.01379 9.89112 22986 ft 355 kts 157°
2026-05-07 17:49 42.99205 9.90694 22972 ft 355 kts 157°
2026-05-07 17:50 42.97020 9.92284 22976 ft 356 kts 157°
2026-05-07 17:50 42.94830 9.93876 22982 ft 356 kts 157°
2026-05-07 17:50 42.92644 9.95465 22984 ft 356 kts 157°
2026-05-07 17:50 42.90455 9.97055 22990 ft 356 kts 157°
2026-05-07 17:51 42.88272 9.98640 22985 ft 356 kts 157°
2026-05-07 17:51 42.86092 10.00221 22985 ft 356 kts 157°
2026-05-07 17:51 42.83898 10.01810 22986 ft 356 kts 157°
2026-05-07 17:51 42.81707 10.03397 22986 ft 356 kts 157°
2026-05-07 17:52 42.79511 10.04986 22981 ft 356 kts 157°
2026-05-07 17:52 42.77317 10.06571 22972 ft 357 kts 157°
2026-05-07 17:52 42.75123 10.08155 22979 ft 357 kts 157°
2026-05-07 17:52 42.72930 10.09738 22983 ft 357 kts 157°
2026-05-07 17:53 42.70732 10.11323 22982 ft 357 kts 157°
2026-05-07 17:53 42.68535 10.12906 22984 ft 357 kts 157°
2026-05-07 17:53 42.66334 10.14491 22986 ft 357 kts 157°
2026-05-07 17:53 42.64141 10.16068 22985 ft 357 kts 157°
2026-05-07 17:54 42.61940 10.17651 22983 ft 357 kts 157°
2026-05-07 17:54 42.59741 10.19230 22984 ft 357 kts 157°
2026-05-07 17:54 42.57544 10.20807 22975 ft 357 kts 157°
2026-05-07 17:54 42.55341 10.22386 22974 ft 359 kts 157°
2026-05-07 17:55 42.53126 10.23973 22980 ft 361 kts 157°
2026-05-07 17:55 42.50899 10.25567 22982 ft 361 kts 157°
2026-05-07 17:55 42.48707 10.27136 22983 ft 361 kts 157°
2026-05-07 17:55 42.46452 10.28748 22983 ft 361 kts 157°
2026-05-07 17:56 42.44259 10.30315 22984 ft 361 kts 157°
2026-05-07 17:56 42.42039 10.31899 22984 ft 361 kts 157°
2026-05-07 17:56 42.39782 10.33508 22984 ft 361 kts 157°
2026-05-07 17:56 42.37587 10.35072 22983 ft 361 kts 157°
2026-05-07 17:57 42.35364 10.36654 22984 ft 361 kts 157°
2026-05-07 17:57 42.33859 10.37725 22984 ft 361 kts 157°
2026-05-07 17:57 42.30878 10.39698 22984 ft 360 kts 160°
2026-05-07 17:57 42.28614 10.41142 22981 ft 360 kts 160°
2026-05-07 17:58 42.26351 10.42582 22981 ft 360 kts 160°
2026-05-07 17:58 42.24086 10.44022 22981 ft 360 kts 160°
2026-05-07 17:58 42.21820 10.45463 22981 ft 360 kts 160°
2026-05-07 17:58 42.19554 10.46903 22981 ft 360 kts 160°
2026-05-07 17:59 42.17291 10.48341 22982 ft 360 kts 160°
2026-05-07 17:59 42.15027 10.49778 22981 ft 360 kts 160°
2026-05-07 17:59 42.12751 10.51223 22965 ft 360 kts 160°
2026-05-07 17:59 42.10448 10.52684 22973 ft 361 kts 160°
2026-05-07 18:00 42.08169 10.54128 22976 ft 361 kts 160°
2026-05-07 18:00 42.06043 10.55474 22979 ft 361 kts 160°
2026-05-07 18:00 42.03771 10.56912 22980 ft 361 kts 160°
2026-05-07 18:00 42.01496 10.58349 22969 ft 361 kts 160°
2026-05-07 18:01 41.99217 10.59788 22977 ft 361 kts 160°
2026-05-07 18:01 41.96939 10.61226 22978 ft 361 kts 160°
2026-05-07 18:01 41.94661 10.62663 22975 ft 361 kts 160°
2026-05-07 18:01 41.92390 10.64094 22976 ft 361 kts 160°
2026-05-07 18:02 41.87835 10.66960 22972 ft 361 kts 160°
2026-05-07 18:02 41.85556 10.68394 22972 ft 361 kts 160°
2026-05-07 18:02 41.83289 10.69819 22972 ft 361 kts 160°
2026-05-07 18:03 41.80941 10.71293 22972 ft 361 kts 160°
2026-05-07 18:03 41.78659 10.72724 22972 ft 361 kts 160°
2026-05-07 18:03 41.76332 10.74183 22974 ft 361 kts 160°
2026-05-07 18:03 41.74058 10.75607 22973 ft 361 kts 160°
2026-05-07 18:04 41.71764 10.77043 22975 ft 361 kts 160°
2026-05-07 18:04 41.69489 10.78465 22973 ft 361 kts 160°
2026-05-07 18:04 41.67210 10.79886 22966 ft 360 kts 159°
2026-05-07 18:04 41.64940 10.81301 22968 ft 360 kts 159°
2026-05-07 18:05 41.62672 10.82717 22967 ft 359 kts 159°
2026-05-07 18:05 41.60388 10.84142 22969 ft 359 kts 159°
2026-05-07 18:05 41.58119 10.85555 22969 ft 359 kts 159°
2026-05-07 18:05 41.55854 10.86965 22967 ft 359 kts 159°
2026-05-07 18:06 41.53590 10.88374 22973 ft 359 kts 159°
2026-05-07 18:06 41.51323 10.89783 22971 ft 359 kts 159°
2026-05-07 18:06 41.49060 10.91188 22968 ft 359 kts 159°
2026-05-07 18:06 41.46788 10.92597 22967 ft 359 kts 159°
2026-05-07 18:07 41.44558 10.93976 22960 ft 358 kts 159°
2026-05-07 18:07 41.42256 10.95401 22963 ft 357 kts 159°
2026-05-07 18:07 41.40035 10.96777 22961 ft 357 kts 159°
2026-05-07 18:07 41.37780 10.98173 22962 ft 357 kts 159°
2026-05-07 18:08 41.35525 10.99567 22965 ft 357 kts 159°
2026-05-07 18:08 41.33275 11.00957 22965 ft 357 kts 159°
2026-05-07 18:08 41.31023 11.02347 22962 ft 357 kts 159°
2026-05-07 18:08 41.28755 11.03745 22962 ft 357 kts 159°
2026-05-07 18:09 41.26501 11.05134 22960 ft 357 kts 159°
2026-05-07 18:09 41.24247 11.06522 22960 ft 357 kts 159°
2026-05-07 18:09 41.22000 11.07899 22954 ft 355 kts 159°
2026-05-07 18:09 41.19764 11.09273 22957 ft 354 kts 159°
2026-05-07 18:10 41.17532 11.10646 22961 ft 354 kts 159°
2026-05-07 18:10 41.15298 11.12018 22962 ft 354 kts 159°
2026-05-07 18:10 41.13066 11.13389 22961 ft 354 kts 159°
2026-05-07 18:10 41.10830 11.14759 22962 ft 353 kts 159°
2026-05-07 18:11 41.08601 11.16125 22959 ft 353 kts 159°
2026-05-07 18:11 41.07119 11.17031 22959 ft 353 kts 159°
2026-05-07 18:11 41.04132 11.18859 22959 ft 353 kts 159°
2026-05-07 18:11 41.01902 11.20221 22960 ft 353 kts 159°
2026-05-07 18:12 40.99682 11.21577 22953 ft 350 kts 159°
2026-05-07 18:12 40.97478 11.22924 22956 ft 347 kts 159°
2026-05-07 18:12 40.95277 11.24265 22955 ft 347 kts 159°
2026-05-07 18:12 40.93113 11.25583 22956 ft 347 kts 159°
2026-05-07 18:13 40.90923 11.26916 22961 ft 346 kts 159°
2026-05-07 18:13 40.88722 11.28255 22960 ft 346 kts 159°
2026-05-07 18:13 40.86517 11.29594 22957 ft 346 kts 159°
2026-05-07 18:13 40.84230 11.30983 22944 ft 347 kts 159°
2026-05-07 18:14 40.82028 11.32319 22961 ft 349 kts 159°
2026-05-07 18:14 40.79817 11.33660 22962 ft 349 kts 159°
2026-05-07 18:14 40.77585 11.35014 22950 ft 346 kts 159°
2026-05-07 18:14 40.75406 11.36337 22954 ft 341 kts 159°
2026-05-07 18:15 40.73250 11.37642 22956 ft 340 kts 159°
2026-05-07 18:15 40.71098 11.38943 22958 ft 340 kts 159°
2026-05-07 18:15 40.68938 11.40247 22950 ft 340 kts 159°
2026-05-07 18:15 40.66787 11.41545 22955 ft 340 kts 159°
2026-05-07 18:16 40.64606 11.42860 22951 ft 340 kts 159°
2026-05-07 18:16 40.62456 11.44156 22953 ft 340 kts 159°
2026-05-07 18:16 40.60301 11.45454 22954 ft 340 kts 159°
2026-05-07 18:16 40.58138 11.46757 22944 ft 340 kts 159°
2026-05-07 18:17 40.55957 11.48069 22948 ft 339 kts 159°
2026-05-07 18:17 40.53777 11.49379 22951 ft 340 kts 159°
2026-05-07 18:17 40.51628 11.50671 22946 ft 340 kts 159°
2026-05-07 18:17 40.49476 11.51963 22949 ft 340 kts 159°
2026-05-07 18:18 40.47320 11.53256 22949 ft 340 kts 159°
2026-05-07 18:18 40.45171 11.54545 22942 ft 340 kts 159°
2026-05-07 18:18 40.43019 11.55834 22950 ft 340 kts 159°
2026-05-07 18:18 40.40867 11.57123 22948 ft 340 kts 159°
2026-05-07 18:19 40.38704 11.58417 22947 ft 340 kts 159°
2026-05-07 18:19 40.36552 11.59704 22951 ft 340 kts 159°
2026-05-07 18:19 40.34394 11.60994 22946 ft 340 kts 159°
2026-05-07 18:19 40.32241 11.62279 22945 ft 340 kts 159°
2026-05-07 18:20 40.30055 11.63588 22936 ft 344 kts 160°
2026-05-07 18:20 40.27849 11.64902 22941 ft 346 kts 160°
2026-05-07 18:20 40.25643 11.66215 22945 ft 346 kts 160°
2026-05-07 18:20 40.23449 11.67520 22945 ft 346 kts 160°
2026-05-07 18:21 40.21208 11.68853 22938 ft 347 kts 160°
2026-05-07 18:21 40.18960 11.70189 22942 ft 348 kts 160°
2026-05-07 18:21 40.16746 11.71504 22943 ft 348 kts 160°
2026-05-07 18:21 40.14501 11.72837 22946 ft 348 kts 160°
2026-05-07 18:22 40.12269 11.74161 22948 ft 348 kts 160°
2026-05-07 18:22 40.11555 11.74584 22948 ft 348 kts 160°
2026-05-07 18:22 40.08600 11.76336 22940 ft 348 kts 160°
2026-05-07 18:22 40.05777 11.78007 22940 ft 348 kts 160°
2026-05-07 18:23 40.03577 11.79308 22942 ft 348 kts 160°
2026-05-07 18:23 40.01345 11.80628 22941 ft 348 kts 160°
2026-05-07 18:23 39.99171 11.81912 22940 ft 348 kts 160°
2026-05-07 18:23 39.96966 11.83214 22939 ft 348 kts 160°
2026-05-07 18:24 39.94752 11.84520 22941 ft 348 kts 160°
2026-05-07 18:24 39.92512 11.85840 22940 ft 348 kts 160°
2026-05-07 18:24 39.91052 11.86700 22940 ft 348 kts 160°
2026-05-07 18:24 39.88118 11.88427 22941 ft 348 kts 160°
2026-05-07 18:25 39.85899 11.89817 22916 ft 349 kts 158°
2026-05-07 18:25 39.83720 11.91274 22923 ft 351 kts 157°
2026-05-07 18:25 39.81553 11.92724 22931 ft 351 kts 157°
2026-05-07 18:25 39.80072 11.93716 22933 ft 351 kts 157°
2026-05-07 18:26 39.77902 11.95166 22935 ft 351 kts 157°
2026-05-07 18:26 39.75709 11.96631 22932 ft 351 kts 157°
2026-05-07 18:26 39.73538 11.98080 22932 ft 351 kts 157°
2026-05-07 18:26 39.71361 11.99531 22932 ft 351 kts 157°
2026-05-07 18:27 39.69192 12.00977 22932 ft 351 kts 157°
2026-05-07 18:27 39.67049 12.02404 22929 ft 351 kts 157°
2026-05-07 18:27 39.64846 12.03870 22929 ft 351 kts 157°
2026-05-07 18:27 39.62699 12.05301 22918 ft 351 kts 158°
2026-05-07 18:28 39.60528 12.06747 22920 ft 351 kts 158°
2026-05-07 18:28 39.58343 12.08197 22924 ft 351 kts 158°
2026-05-07 18:28 39.56167 12.09639 22925 ft 351 kts 158°
2026-05-07 18:28 39.53968 12.11096 22926 ft 351 kts 158°
2026-05-07 18:29 39.51825 12.12516 22924 ft 351 kts 158°
2026-05-07 18:29 39.49644 12.13959 22924 ft 351 kts 158°
2026-05-07 18:29 39.47434 12.15421 22924 ft 351 kts 158°
2026-05-07 18:29 39.45276 12.16848 22924 ft 351 kts 158°
2026-05-07 18:30 39.43101 12.18285 22924 ft 351 kts 158°
2026-05-07 18:30 39.40922 12.19724 22921 ft 351 kts 158°
2026-05-07 18:30 39.38749 12.21157 22921 ft 351 kts 158°
2026-05-07 18:30 39.36710 12.22504 22910 ft 352 kts 158°
2026-05-07 18:31 39.34492 12.23966 22915 ft 353 kts 158°
2026-05-07 18:31 39.32297 12.25410 22917 ft 353 kts 158°
2026-05-07 18:31 39.30108 12.26850 22918 ft 353 kts 158°
2026-05-07 18:31 39.27921 12.28287 22920 ft 353 kts 158°
2026-05-07 18:32 39.25730 12.29727 22918 ft 353 kts 158°
2026-05-07 18:32 39.23545 12.31161 22918 ft 353 kts 158°
2026-05-07 18:32 39.21351 12.32600 22918 ft 353 kts 158°
2026-05-07 18:32 39.19167 12.34032 22907 ft 353 kts 158°
2026-05-07 18:33 39.16994 12.35456 22910 ft 353 kts 158°
2026-05-07 18:33 39.14799 12.36894 22910 ft 353 kts 158°
2026-05-07 18:33 39.12594 12.38340 22901 ft 355 kts 159°
2026-05-07 18:33 39.10389 12.39782 22909 ft 356 kts 159°
2026-05-07 18:34 39.08172 12.41231 22891 ft 357 kts 159°
2026-05-07 18:34 39.05950 12.42683 22902 ft 359 kts 159°
2026-05-07 18:34 39.03725 12.44133 22907 ft 359 kts 159°
2026-05-07 18:34 39.01492 12.45587 22908 ft 359 kts 159°
2026-05-07 18:35 38.99261 12.47039 22904 ft 359 kts 159°
2026-05-07 18:35 38.97032 12.48489 22899 ft 359 kts 159°
2026-05-07 18:35 38.94831 12.49921 22898 ft 359 kts 159°
2026-05-07 18:35 38.92599 12.51371 22899 ft 359 kts 159°
2026-05-07 18:36 38.90370 12.52819 22899 ft 359 kts 159°
2026-05-07 18:36 38.88134 12.54276 22891 ft 361 kts 160°
2026-05-07 18:36 38.85873 12.55742 22894 ft 362 kts 160°
2026-05-07 18:36 38.83624 12.57196 22895 ft 362 kts 160°
2026-05-07 18:37 38.81373 12.58652 22896 ft 362 kts 160°
2026-05-07 18:37 38.79123 12.60107 22891 ft 362 kts 160°
2026-05-07 18:37 38.76876 12.61560 22889 ft 362 kts 160°
2026-05-07 18:37 38.74625 12.63014 22884 ft 362 kts 160°
2026-05-07 18:38 38.72365 12.64473 22883 ft 362 kts 160°
2026-05-07 18:38 38.70117 12.65924 22883 ft 362 kts 160°
2026-05-07 18:38 38.67862 12.67379 22883 ft 362 kts 160°
2026-05-07 18:38 38.65611 12.68830 22859 ft 362 kts 160°
2026-05-07 18:39 38.63363 12.70283 22870 ft 360 kts 160°
2026-05-07 18:39 38.61133 12.71720 22880 ft 358 kts 161°
2026-05-07 18:39 38.58904 12.73154 22875 ft 358 kts 161°
2026-05-07 18:39 38.56676 12.74584 22888 ft 358 kts 161°
2026-05-07 18:40 38.54482 12.75992 22891 ft 358 kts 161°
2026-05-07 18:40 38.52253 12.77421 22872 ft 358 kts 161°
2026-05-07 18:40 38.50030 12.78849 22871 ft 357 kts 161°
2026-05-07 18:40 38.47781 12.80291 22873 ft 357 kts 161°
2026-05-07 18:41 38.45566 12.81708 22878 ft 357 kts 161°
2026-05-07 18:41 38.43381 12.83106 22875 ft 357 kts 161°
2026-05-07 18:41 38.41165 12.84524 22858 ft 357 kts 161°
2026-05-07 18:41 38.38926 12.85956 22864 ft 354 kts 161°
2026-05-07 18:42 38.36725 12.87363 22868 ft 353 kts 161°
2026-05-07 18:42 38.34558 12.88746 22868 ft 352 kts 161°
2026-05-07 18:42 38.32368 12.90143 22867 ft 352 kts 161°
2026-05-07 18:42 38.30173 12.91541 22868 ft 352 kts 161°
2026-05-07 18:43 38.27982 12.92939 22865 ft 352 kts 161°
2026-05-07 18:43 38.25792 12.94335 22864 ft 352 kts 161°
2026-05-07 18:43 38.23604 12.95730 22864 ft 352 kts 161°
2026-05-07 18:43 38.21409 12.97127 22864 ft 352 kts 161°
2026-05-07 18:44 38.19216 12.98521 22867 ft 352 kts 161°
2026-05-07 18:44 38.17031 12.99909 22865 ft 352 kts 161°
2026-05-07 18:44 38.14842 13.01297 22850 ft 350 kts 161°
2026-05-07 18:44 38.12665 13.02676 22856 ft 350 kts 160°
2026-05-07 18:45 38.10472 13.04069 22864 ft 350 kts 160°
2026-05-07 18:45 38.08289 13.05455 22864 ft 349 kts 160°
2026-05-07 18:45 38.06114 13.06835 22864 ft 349 kts 160°
2026-05-07 18:45 38.03939 13.08212 22867 ft 349 kts 161°
2026-05-07 18:46 38.01762 13.09582 22866 ft 349 kts 161°
2026-05-07 18:46 37.99589 13.10948 22867 ft 349 kts 161°
2026-05-07 18:46 37.97415 13.12317 22872 ft 349 kts 161°
2026-05-07 18:46 37.95237 13.13688 22870 ft 349 kts 161°
2026-05-07 18:47 37.93056 13.15060 22878 ft 351 kts 161°
2026-05-07 18:47 37.90867 13.16438 22856 ft 351 kts 161°
2026-05-07 18:47 37.88670 13.17821 22866 ft 351 kts 161°
2026-05-07 18:47 37.86484 13.19196 22882 ft 352 kts 161°
2026-05-07 18:48 37.84278 13.20583 22886 ft 351 kts 161°
2026-05-07 18:48 37.82092 13.21956 22889 ft 351 kts 161°
2026-05-07 18:48 37.79906 13.23328 22889 ft 351 kts 161°
2026-05-07 18:48 37.77711 13.24705 22895 ft 351 kts 161°
2026-05-07 18:49 37.75527 13.26074 22894 ft 351 kts 161°
2026-05-07 18:49 37.73339 13.27444 22890 ft 351 kts 161°
2026-05-07 18:49 37.71150 13.28815 22895 ft 351 kts 161°
2026-05-07 18:49 37.68958 13.30187 22894 ft 351 kts 161°
2026-05-07 18:50 37.66753 13.31565 22905 ft 350 kts 161°
2026-05-07 18:50 37.64585 13.32919 22897 ft 350 kts 161°
2026-05-07 18:50 37.62392 13.34289 22895 ft 350 kts 161°
2026-05-07 18:50 37.60201 13.35655 22907 ft 350 kts 161°
2026-05-07 18:51 37.58000 13.37033 22906 ft 350 kts 161°
2026-05-07 18:51 37.55812 13.38401 22907 ft 351 kts 161°
2026-05-07 18:51 37.53612 13.39774 22907 ft 351 kts 161°
2026-05-07 18:51 37.51425 13.41137 22911 ft 351 kts 161°
2026-05-07 18:52 37.49201 13.42522 22912 ft 351 kts 161°
2026-05-07 18:52 37.47011 13.43882 22915 ft 351 kts 161°
2026-05-07 18:52 37.44823 13.45242 22910 ft 351 kts 161°
2026-05-07 18:52 37.42633 13.46601 22922 ft 351 kts 161°
2026-05-07 18:53 37.40429 13.47973 22883 ft 351 kts 162°
2026-05-07 18:53 37.38231 13.49337 22895 ft 352 kts 162°
2026-05-07 18:53 37.36026 13.50697 22902 ft 354 kts 162°
2026-05-07 18:53 37.33809 13.52063 22907 ft 355 kts 162°
2026-05-07 18:54 37.31595 13.53430 22917 ft 355 kts 162°
2026-05-07 18:54 37.29367 13.54806 22912 ft 355 kts 162°
2026-05-07 18:54 37.27151 13.56175 22910 ft 355 kts 162°
2026-05-07 18:54 37.24915 13.57556 22910 ft 355 kts 162°
2026-05-07 18:55 37.22698 13.58925 22909 ft 355 kts 162°
2026-05-07 18:55 37.20469 13.60299 22904 ft 355 kts 162°
2026-05-07 18:55 37.18263 13.61659 22906 ft 355 kts 162°
2026-05-07 18:55 37.16045 13.63025 22887 ft 355 kts 162°
2026-05-07 18:56 37.13806 13.64407 22895 ft 357 kts 162°
2026-05-07 18:56 37.11558 13.65710 22899 ft 355 kts 166°
2026-05-07 18:56 37.09280 13.66894 22901 ft 354 kts 166°
2026-05-07 18:56 37.06999 13.68067 22902 ft 354 kts 167°
2026-05-07 18:57 37.04722 13.69235 22901 ft 354 kts 166°
2026-05-07 18:57 37.02396 13.70429 22902 ft 354 kts 166°
2026-05-07 18:57 37.00087 13.71615 22902 ft 354 kts 166°
2026-05-07 18:57 36.97820 13.72779 22902 ft 354 kts 166°
2026-05-07 18:58 36.95540 13.73950 22902 ft 354 kts 166°
2026-05-07 18:58 36.93262 13.75120 22902 ft 354 kts 167°
2026-05-07 18:58 36.90980 13.76291 22885 ft 354 kts 167°
2026-05-07 18:58 36.88695 13.77464 22895 ft 353 kts 167°
2026-05-07 18:59 36.86425 13.78627 22803 ft 352 kts 167°
2026-05-07 18:59 36.84191 13.79771 22536 ft 350 kts 166°
2026-05-07 18:59 36.81939 13.80926 22122 ft 341 kts 166°
2026-05-07 18:59 36.79754 13.82046 21905 ft 338 kts 166°
2026-05-07 19:00 36.77583 13.83154 21763 ft 337 kts 166°
2026-05-07 19:00 36.75401 13.84268 21629 ft 336 kts 166°
2026-05-07 19:00 36.73240 13.85371 21490 ft 335 kts 166°
2026-05-07 19:00 36.71110 13.86459 21138 ft 326 kts 166°
2026-05-07 19:01 36.69016 13.87527 20618 ft 325 kts 166°
2026-05-07 19:01 36.66915 13.88595 20225 ft 325 kts 166°
2026-05-07 19:01 36.64823 13.89660 19869 ft 325 kts 166°
2026-05-07 19:01 36.62703 13.90740 19468 ft 325 kts 166°
2026-05-07 19:02 36.60599 13.91811 19079 ft 323 kts 166°
2026-05-07 19:02 36.58522 13.92868 18717 ft 321 kts 165°
2026-05-07 19:02 36.56457 13.93917 18377 ft 319 kts 165°
2026-05-07 19:02 36.54407 13.94958 18009 ft 317 kts 165°
2026-05-07 19:03 36.52371 13.95992 17702 ft 315 kts 165°
2026-05-07 19:03 36.50316 13.97034 17398 ft 314 kts 165°
2026-05-07 19:03 36.48299 13.98057 17081 ft 312 kts 165°
2026-05-07 19:03 36.46294 13.99073 16748 ft 310 kts 165°
2026-05-07 19:04 36.44298 14.00084 16410 ft 309 kts 165°
2026-05-07 19:04 36.42316 14.01087 16051 ft 307 kts 165°
2026-05-07 19:04 36.40349 14.02082 15680 ft 304 kts 164°
2026-05-07 19:04 36.38400 14.03093 15332 ft 302 kts 168°
2026-05-07 19:05 36.36467 14.04074 14932 ft 298 kts 168°
2026-05-07 19:05 36.34551 14.05034 14542 ft 296 kts 168°
2026-05-07 19:05 36.32650 14.05986 14197 ft 293 kts 168°
2026-05-07 19:05 36.30763 14.06932 13890 ft 291 kts 169°
2026-05-07 19:06 36.28890 14.07873 13549 ft 289 kts 168°
2026-05-07 19:06 36.25179 14.09735 12890 ft 287 kts 168°
2026-05-07 19:06 36.23332 14.10660 12560 ft 286 kts 167°
2026-05-07 19:07 36.21493 14.11583 12245 ft 285 kts 167°
2026-05-07 19:07 36.19660 14.12504 11927 ft 284 kts 167°
2026-05-07 19:07 36.17834 14.13422 11597 ft 283 kts 166°
2026-05-07 19:07 36.16016 14.14336 11278 ft 281 kts 166°
2026-05-07 19:08 36.14236 14.15233 10963 ft 280 kts 167°
2026-05-07 19:08 36.12416 14.16158 10760 ft 279 kts 167°
2026-05-07 19:08 36.10615 14.17058 10653 ft 279 kts 167°
2026-05-07 19:08 36.08822 14.17952 10556 ft 279 kts 167°
2026-05-07 19:09 36.07047 14.18839 10438 ft 278 kts 167°
2026-05-07 19:09 36.05258 14.19765 10324 ft 281 kts 162°
2026-05-07 19:09 36.03564 14.21039 10234 ft 289 kts 150°
2026-05-07 19:09 36.02058 14.22728 10116 ft 296 kts 141°
2026-05-07 19:10 36.00666 14.24621 10030 ft 298 kts 139°
2026-05-07 19:10 35.99739 14.25922 9965 ft 299 kts 139°
2026-05-07 19:10 35.98368 14.27849 9771 ft 298 kts 139°
2026-05-07 19:10 35.97003 14.29760 9420 ft 296 kts 139°
2026-05-07 19:11 35.95639 14.31658 9116 ft 294 kts 138°
2026-05-07 19:11 35.94282 14.33540 8820 ft 292 kts 138°
2026-05-07 19:11 35.92932 14.35409 8532 ft 291 kts 138°
2026-05-07 19:11 35.91146 14.37872 8144 ft 289 kts 138°
2026-05-07 19:12 35.90242 14.39116 7945 ft 288 kts 138°
2026-05-07 19:12 35.88907 14.40952 7665 ft 287 kts 137°
2026-05-07 19:12 35.87536 14.42722 7377 ft 283 kts 142°
2026-05-07 19:12 35.86103 14.44362 7092 ft 282 kts 143°
2026-05-07 19:13 35.84628 14.46002 6747 ft 280 kts 143°
2026-05-07 19:13 35.83178 14.47594 6468 ft 278 kts 143°
2026-05-07 19:13 35.81683 14.49097 6170 ft 273 kts 150°
2026-05-07 19:13 35.80189 14.50302 5888 ft 271 kts 153°
2026-05-07 19:14 35.78571 14.51539 5540 ft 269 kts 154°
2026-05-07 19:14 35.76988 14.52744 5177 ft 267 kts 154°
2026-05-07 19:14 35.75411 14.53950 4809 ft 265 kts 154°
2026-05-07 19:14 35.73850 14.55150 4446 ft 264 kts 154°
2026-05-07 19:15 35.72260 14.56380 3951 ft 262 kts 154°
2026-05-07 19:15 35.70676 14.57610 3449 ft 261 kts 154°
2026-05-07 19:15 35.69142 14.58800 3090 ft 260 kts 154°
2026-05-07 19:15 35.67600 14.59998 3028 ft 262 kts 152°
2026-05-07 19:16 35.66262 14.61566 2995 ft 273 kts 126°
2026-05-07 19:16 35.65637 14.63792 3008 ft 281 kts 97°
2026-05-07 19:16 35.65919 14.66210 3021 ft 283 kts 66°
2026-05-07 19:16 35.67076 14.68202 3023 ft 278 kts 36°
2026-05-07 19:17 35.68759 14.69252 3025 ft 268 kts
2026-05-07 19:17 35.70561 14.69203 3021 ft 255 kts 336°
2026-05-07 19:17 35.72016 14.68140 3010 ft 241 kts 307°
2026-05-07 19:17 35.72885 14.66520 3007 ft 214 kts 292°
2026-05-07 19:18 35.73518 14.64935 2979 ft 192 kts 291°
2026-05-07 19:18 35.74068 14.63488 2911 ft 183 kts 290°
2026-05-07 19:18 35.74636 14.62122 2707 ft 175 kts 295°
2026-05-07 19:18 35.75319 14.60922 2460 ft 165 kts 302°
2026-05-07 19:19 35.76043 14.59885 2241 ft 154 kts 305°
2026-05-07 19:19 35.76755 14.58958 2013 ft 143 kts 306°
2026-05-07 19:19 35.77440 14.58094 1832 ft 140 kts 306°
2026-05-07 19:19 35.78120 14.57243 1673 ft 139 kts 307°
2026-05-07 19:20 35.78799 14.56396 1507 ft 138 kts 307°
2026-05-07 19:20 35.79475 14.55555 1334 ft 138 kts 307°
2026-05-07 19:20 35.80150 14.54712 1144 ft 138 kts 308°
2026-05-07 19:20 35.80821 14.53868 909 ft 137 kts 311°
2026-05-07 19:21 35.81495 14.53033 847 ft 137 kts 313°
2026-05-07 19:21 35.82163 14.52187 680 ft 138 kts 314°
2026-05-07 19:21 35.82848 14.51353 484 ft 138 kts 315°
2026-05-07 19:21 35.83514 14.50515 302 ft 130 kts 316°
2026-05-07 19:22 35.84044 14.49858 263 ft 73 kts 315°
2026-05-07 19:22 35.84305 14.49536 266 ft 48 kts 315°
2026-05-07 19:22 35.84535 14.49253 267 ft 45 kts 314°
2026-05-07 19:22 35.84704 14.49063 267 ft 30 kts 326°
2026-05-07 19:23 35.84849 14.48982 267 ft 12 kts 352°
2026-05-07 19:23 35.84904 14.48995 269 ft 4 kts 40°
2026-05-07 19:23 35.84909 14.49001 267 ft 1 kts 43°
2026-05-07 19:23 35.84918 14.49020 267 ft 7 kts 71°
2026-05-07 19:24 35.84877 14.49127 267 ft 11 kts 136°
2026-05-07 19:24 35.84813 14.49201 267 ft 8 kts 133°
2026-05-07 19:24 35.84766 14.49262 267 ft 12 kts 134°
2026-05-07 19:24 35.84676 14.49372 267 ft 25 kts 136°
2026-05-07 19:25 35.84545 14.49532 267 ft 19 kts 135°
2026-05-07 19:25 35.84453 14.49510 267 ft 19 kts 264°
2026-05-07 19:25 35.84514 14.49313 267 ft 36 kts 307°
2026-05-07 19:25 35.84718 14.49026 267 ft 45 kts 314°
2026-05-07 19:26 35.84939 14.48752 268 ft 44 kts 315°
2026-05-07 19:26 35.85146 14.48494 280 ft 41 kts 315°
2026-05-07 19:26 35.85319 14.48280 280 ft 29 kts 315°
2026-05-07 19:26 35.85470 14.48096 280 ft 31 kts 315°
2026-05-07 19:27 35.85624 14.47899 280 ft 32 kts 315°
2026-05-07 19:27 35.85730 14.47753 280 ft 9 kts 264°
2026-05-07 19:27 35.85696 14.47662 280 ft 17 kts 243°
2026-05-07 19:27 35.85656 14.47489 280 ft 22 kts 268°
2026-05-07 19:28 35.85655 14.47332 280 ft 14 kts 269°
2026-05-07 19:28 35.85654 14.47208 280 ft 15 kts 269°
2026-05-07 19:28 35.85632 14.47107 283 ft 3 kts 244°
2026-05-07 19:28 35.85626 14.47094 284 ft 3 kts 240°
2026-05-07 19:29 35.85595 14.47035 287 ft 6 kts 235°
2026-05-07 19:29 35.85592 14.47029 287 ft 0 kts 234°
2026-05-07 19:29 35.85591 14.47028 287 ft 0 kts 235°